N3MFL Weather Reports


time (UTC)temp
C
wind
direction
speed
KPH
gust
KPH
rain 1hr
cm
rain 24hr
cm
rain mn
cm
humidity
%
barometer
mb
20260503025359 8 164 0.0 0.0 0.00 0.00 0.00 93 1010.9
20260503024856 8 160 0.0 0.0 0.00 0.00 0.00 93 1011.1
20260503024353 8 160 0.0 0.0 0.00 0.00 0.00 93 1011.2
20260503023849 8 160 0.0 0.0 0.00 0.00 0.00 93 1011.0
20260503023341 8 160 0.0 0.0 0.00 0.00 0.00 93 1011.2
20260503022838 8 159 0.0 0.0 0.00 0.00 0.00 93 1011.2
20260503022337 8 159 0.0 0.0 0.00 0.00 0.00 93 1011.3
20260503021834 8 160 0.0 0.0 0.00 0.00 0.00 93 1011.2
20260503021330 8 160 0.0 0.0 0.00 0.00 0.00 93 1011.2
20260503020828 8 159 0.0 0.0 0.00 0.00 0.00 92 1011.3
20260503020326 8 160 0.0 0.0 0.00 0.00 0.00 92 1011.2
20260503015822 8 160 0.0 0.0 0.00 0.00 0.00 92 1011.4
20260503015319 8 160 0.0 0.0 0.00 0.00 0.00 92 1011.4
20260503014815 8 159 0.0 0.0 0.00 0.00 0.00 92 1011.4
20260503014313 8 159 0.0 0.0 0.00 0.00 0.00 92 1011.6
20260503013810 8 160 0.0 0.0 0.00 0.00 0.00 91 1011.6
20260503013307 8 159 0.0 0.0 0.00 0.00 0.00 91 1011.7
20260503012804 9 160 0.0 0.0 0.00 0.00 0.00 91 1011.6
20260503012301 9 159 0.0 0.0 0.00 0.00 0.00 91 1011.7
20260503011758 9 159 0.0 0.0 0.00 0.00 0.00 91 1011.5
20260503011255 8 159 0.0 0.0 0.00 0.00 0.00 91 1011.5
20260503010751 9 159 0.0 0.0 0.00 0.00 0.00 90 1011.3
20260503010249 9 159 0.0 0.0 0.00 0.00 0.00 90 1011.6
20260503005746 9 159 0.0 0.0 0.00 0.00 0.00 90 1011.4
20260503005243 9 159 0.0 0.0 0.00 0.00 0.00 90 1011.5
20260503004739 9 159 0.0 0.0 0.00 0.00 0.00 90 1011.5
20260503004237 9 180 0.0 0.0 0.00 0.00 0.00 90 1011.4
20260503003734 9 186 0.0 0.0 0.00 0.00 0.00 89 1011.6
20260503003231 9 174 0.0 0.0 0.00 0.00 0.00 89 1011.6
20260503002728 9 184 0.0 0.0 0.00 0.00 0.00 89 1011.2
20260503002225 9 157 0.0 0.0 0.00 0.00 0.00 89 1011.4
20260503001721 9 157 0.0 0.0 0.00 0.00 0.00 89 1011.1
20260503001217 10 157 0.0 0.0 0.00 0.00 0.00 88 1011.3
20260503000715 10 157 0.0 0.0 0.00 0.00 0.00 88 1011.4
20260503000212 10 175 0.0 0.0 0.00 0.00 0.00 88 1011.3
20260502235709 10 175 0.0 0.0 0.00 0.00 0.00 88 1011.4
20260502235208 10 164 0.0 0.0 0.00 0.00 0.00 87 1011.4
20260502234703 10 173 0.0 0.0 0.00 0.00 0.00 87 1011.3
20260502234200 10 179 0.0 0.0 0.00 0.00 0.00 87 1011.2
20260502233656 10 187 0.0 1.6 0.00 0.00 0.00 86 1011.4
20260502233153 10 182 0.0 0.0 0.00 0.00 0.00 86 1011.5
20260502232649 10 202 1.6 1.6 0.00 0.00 0.00 86 1011.3
20260502232147 10 194 0.0 1.6 0.00 0.00 0.00 86 1011.5
20260502231643 10 186 0.0 0.0 0.00 0.00 0.00 86 1011.4
20260502231141 10 176 0.0 0.0 0.00 0.00 0.00 86 1011.4
20260502230640 10 196 1.6 1.6 0.00 0.00 0.00 85 1011.4
20260502230137 10 171 0.0 0.0 0.00 0.00 0.00 85 1011.3
20260502225632 10 177 0.0 0.0 0.00 0.00 0.00 85 1011.3
20260502225131 10 205 1.6 1.6 0.00 0.00 0.00 85 1011.6
20260502224626 10 194 1.6 1.6 0.00 0.00 0.00 85 1011.3
20260502224123 10 187 1.6 1.6 0.00 0.00 0.00 84 1011.3
20260502223621 10 164 0.0 0.0 0.00 0.00 0.00 84 1011.4
20260502223119 10 166 0.0 0.0 0.00 0.00 0.00 85 1011.3
20260502222616 10 179 0.0 0.0 0.00 0.00 0.00 84 1011.2
20260502222112 10 175 1.6 1.6 0.00 0.00 0.00 84 1011.1
20260502221608 10 179 0.0 0.0 0.00 0.00 0.00 84 1011.2
20260502221106 10 226 1.6 1.6 0.00 0.00 0.00 84 1011.2
20260502220601 10 182 0.0 1.6 0.00 0.00 0.00 84 1011.3
20260502220058 10 179 0.0 0.0 0.00 0.00 0.00 84 1011.3
20260502215555 10 174 0.0 0.0 0.00 0.00 0.00 84 1011.4
20260502215052 10 257 3.2 3.2 0.00 0.00 0.00 83 1011.1
20260502214549 10 191 1.6 1.6 0.00 0.00 0.00 83 1011.2
20260502214047 10 217 1.6 3.2 0.00 0.00 0.00 83 1011.0
20260502213543 10 204 0.0 1.6 0.00 0.00 0.00 83 1011.3
20260502213041 10 223 1.6 3.2 0.00 0.00 0.00 82 1011.3
20260502212540 10 259 3.2 4.8 0.00 0.00 0.00 82 1011.3
20260502212037 10 198 1.6 1.6 0.00 0.00 0.00 82 1011.3
20260502211532 10 246 1.6 3.2 0.00 0.00 0.00 82 1011.2
20260502211030 10 113 0.0 0.0 0.00 0.00 0.00 81 1011.4
20260502210527 10 215 1.6 3.2 0.00 0.00 0.00 82 1011.1
20260502210019 10 222 3.2 4.8 0.00 0.00 0.00 81 1011.2
20260502205515 10 209 3.2 4.8 0.00 0.00 0.00 81 1011.2
20260502205012 10 181 1.6 1.6 0.00 0.00 0.00 82 1011.3
20260502204508 10 215 1.6 3.2 0.00 0.00 0.00 82 1011.3
20260502204006 11 201 1.6 1.6 0.00 0.00 0.00 81 1011.1
20260502203458 11 188 3.2 3.2 0.00 0.00 0.00 82 1011.2
20260502202954 11 206 1.6 1.6 0.00 0.00 0.00 82 1011.3
20260502202451 11 217 3.2 4.8 0.00 0.00 0.00 81 1011.5
20260502201949 11 192 3.2 4.8 0.00 0.00 0.00 81 1011.4
20260502201445 11 184 3.2 3.2 0.00 0.00 0.00 81 1011.4
20260502200942 11 186 4.8 4.8 0.00 0.00 0.00 81 1011.4
20260502200437 11 203 3.2 3.2 0.00 0.00 0.00 82 1011.5
20260502195935 11 248 6.4 9.7 0.00 0.00 0.00 82 1011.6
20260502195432 11 224 3.2 4.8 0.00 0.00 0.00 81 1011.5
20260502194929 11 195 4.8 6.4 0.00 0.00 0.00 81 1011.7
20260502194426 11 201 6.4 14.5 0.00 0.00 0.00 81 1011.8
20260502193921 11 204 3.2 4.8 0.00 0.00 0.00 80 1011.7
20260502193419 11 177 8.0 12.9 0.00 0.00 0.00 80 1011.8
20260502192914 11 211 4.8 4.8 0.00 0.00 0.00 80 1011.9
20260502192411 11 192 1.6 3.2 0.00 0.00 0.00 80 1012.0
20260502191908 11 200 3.2 3.2 0.00 0.00 0.00 80 1012.0
20260502191406 11 243 3.2 3.2 0.00 0.00 0.00 78 1012.2
20260502190904 11 230 4.8 4.8 0.00 0.00 0.00 76 1012.3
20260502190401 11 246 6.4 6.4 0.00 0.00 0.00 74 1012.1
20260502185856 11 174 4.8 4.8 0.00 0.00 0.00 74 1012.4
20260502185352 11 214 6.4 9.7 0.00 0.00 0.00 74 1012.3
20260502184850 11 239 3.2 4.8 0.00 0.00 0.00 74 1012.2
20260502184345 11 189 3.2 4.8 0.00 0.00 0.00 76 1012.5
20260502183842 11 164 4.8 4.8 0.00 0.00 0.00 77 1012.3
20260502183338 11 208 3.2 4.8 0.00 0.00 0.00 78 1012.3
20260502182833 12 168 3.2 4.8 0.00 0.00 0.00 77 1012.4
20260502182328 11 202 0.0 1.6 0.00 0.00 0.00 76 1012.3
20260502181825 11 222 4.8 4.8 0.00 0.00 0.00 76 1012.3
20260502181324 11 225 1.6 3.2 0.00 0.00 0.00 77 1012.5
20260502180822 11 201 1.6 3.2 0.00 0.00 0.00 74 1012.3
20260502180319 11 205 3.2 3.2 0.00 0.00 0.00 78 1012.3
20260502170237 11 194 3.2 4.8 0.00 0.00 0.00 78 1012.7
20260502164225 12 193 3.2 3.2 0.00 0.00 0.00 73 1012.6
20260502163720 13 252 6.4 6.4 0.00 0.00 0.00 71 1012.4
20260502163217 13 192 0.0 1.6 0.00 0.00 0.00 69 1012.3
20260502162714 13 206 3.2 3.2 0.00 0.00 0.00 68 1012.4
20260502162211 13 229 8.0 11.3 0.00 0.00 0.00 67 1012.3
20260502161708 13 223 3.2 4.8 0.00 0.00 0.00 66 1012.2
20260502161204 13 204 8.0 11.3 0.00 0.00 0.00 65 1012.5
20260502160703 13 180 1.6 3.2 0.00 0.00 0.00 65 1012.4
20260502160202 13 232 3.2 4.8 0.00 0.00 0.00 68 1012.5
20260502152115 12 155 0.0 0.0 0.00 0.00 0.00 71 1012.6
20260502151612 12 202 1.6 1.6 0.00 0.00 0.00 70 1013.4
20260502151110 13 230 3.2 4.8 0.00 0.00 0.00 71 1013.0
20260502150607 12 218 1.6 1.6 0.00 0.00 0.00 70 1012.7
20260502150103 12 222 1.6 1.6 0.00 0.00 0.00 72 1012.8
20260502130452 11 252 3.2 3.2 0.00 0.00 0.00 75 1013.7
20260502123435 10 261 4.8 6.4 0.00 0.00 0.00 78 1013.7
20260502122932 10 203 3.2 3.2 0.00 0.00 0.00 78 1013.5
20260502122428 10 222 0.0 1.6 0.00 0.00 0.00 78 1013.5
20260502121926 10 211 1.6 3.2 0.00 0.00 0.00 78 1013.6
20260502121423 10 173 3.2 3.2 0.00 0.00 0.00 77 1013.6
20260502120921 10 271 4.8 6.4 0.00 0.00 0.00 77 1013.7
20260502120416 10 247 1.6 1.6 0.00 0.00 0.00 77 1013.2
20260502115914 10 240 1.6 3.2 0.00 0.00 0.00 77 1013.3
20260502115411 10 229 3.2 3.2 0.00 0.00 0.00 77 1013.3
20260502114906 10 205 3.2 3.2 0.00 0.00 0.00 77 1013.4
20260502114404 10 209 1.6 1.6 0.00 0.00 0.00 76 1013.2
20260502113901 10 282 1.6 1.6 0.00 0.00 0.00 76 1013.2
20260502113359 10 192 1.6 1.6 0.00 0.00 0.00 78 1013.0
20260502112857 9 186 1.6 1.6 0.00 0.00 0.00 78 1013.0
20260502112354 8 199 0.0 0.0 0.00 0.00 0.00 79 1013.1
20260502111851 8 190 1.6 3.2 0.00 0.00 0.00 79 1013.2
20260502111348 8 206 1.6 1.6 0.00 0.00 0.00 79 1013.1
20260502110846 8 246 1.6 3.2 0.00 0.00 0.00 79 1013.4
20260502110344 8 215 1.6 1.6 0.00 0.00 0.00 79 1013.2
20260502105841 8 187 0.0 0.0 0.00 0.00 0.00 80 1013.2
20260502105338 8 196 3.2 4.8 0.00 0.00 0.00 80 1013.1
20260502104836 8 171 0.0 0.0 0.00 0.00 0.00 80 1013.0
20260502104333 8 180 1.6 1.6 0.00 0.00 0.00 80 1013.0
20260502103830 8 173 0.0 0.0 0.00 0.00 0.00 80 1012.9
20260502103327 8 184 0.0 0.0 0.00 0.00 0.00 80 1012.9
20260502102825 8 163 0.0 0.0 0.00 0.00 0.00 80 1012.7
20260502102321 8 184 0.0 0.0 0.00 0.00 0.00 80 1012.8
20260502101819 8 184 0.0 1.6 0.00 0.00 0.00 80 1012.6
20260502101317 8 182 0.0 1.6 0.00 0.00 0.00 81 1012.8
20260502100815 7 201 1.6 3.2 0.00 0.00 0.00 81 1012.9
20260502100314 7 208 1.6 3.2 0.00 0.00 0.00 83 1012.9
20260502091247 6 191 0.0 0.0 0.00 0.00 0.00 86 1012.7
20260502090745 6 186 0.0 0.0 0.00 0.00 0.00 86 1012.8
20260502090241 6 158 0.0 0.0 0.00 0.00 0.00 85 1012.5
20260502071142 5 160 0.0 0.0 0.00 0.00 0.00 89 1012.5
20260502070640 5 160 0.0 0.0 0.00 0.00 0.00 88 1012.6
20260502070138 5 160 0.0 0.0 0.00 0.00 0.00 87 1012.5
20260502065636 5 160 0.0 0.0 0.00 0.00 0.00 86 1012.5
20260502065133 5 160 0.0 0.0 0.00 0.00 0.00 86 1012.7
20260502064632 5 160 0.0 0.0 0.00 0.00 0.00 86 1012.6
20260502064128 6 160 0.0 0.0 0.00 0.00 0.00 86 1012.4
20260502063626 6 160 0.0 0.0 0.00 0.00 0.00 86 1012.7
20260502063124 6 160 0.0 0.0 0.00 0.00 0.00 86 1012.7
20260502062621 6 160 0.0 0.0 0.00 0.00 0.00 86 1012.7
20260502062118 5 160 0.0 0.0 0.00 0.00 0.00 86 1012.7
20260502061617 5 160 0.0 0.0 0.00 0.00 0.00 87 1012.9
20260502061114 5 159 0.0 0.0 0.00 0.00 0.00 86 1012.7
20260502060614 5 159 0.0 0.0 0.00 0.00 0.00 86 1012.8
20260502060110 5 162 0.0 0.0 0.00 0.00 0.00 86 1012.8
20260502055608 5 168 0.0 0.0 0.00 0.00 0.00 86 1013.0
20260502055106 5 167 0.0 0.0 0.00 0.00 0.00 86 1013.0
20260502054605 5 167 0.0 0.0 0.00 0.00 0.00 85 1012.9
20260502054102 5 167 0.0 0.0 0.00 0.00 0.00 84 1012.9
20260502053558 5 167 0.0 0.0 0.00 0.00 0.00 84 1013.0
20260502053056 5 167 0.0 0.0 0.00 0.00 0.00 85 1013.1
20260502052555 5 162 0.0 0.0 0.00 0.00 0.00 85 1012.9
20260502052052 5 162 0.0 0.0 0.00 0.00 0.00 84 1013.0
20260502051550 5 162 0.0 0.0 0.00 0.00 0.00 84 1012.9
20260502051048 6 162 0.0 0.0 0.00 0.00 0.00 83 1012.9
20260502050544 6 168 0.0 0.0 0.00 0.00 0.00 82 1013.0
20260502050041 6 177 0.0 0.0 0.00 0.00 0.00 82 1013.1
20260502045537 6 178 0.0 0.0 0.00 0.00 0.00 82 1012.9
20260502045035 6 153 0.0 0.0 0.00 0.00 0.00 81 1013.0
20260502044531 6 153 0.0 0.0 0.00 0.00 0.00 81 1012.9
20260502044028 6 153 0.0 0.0 0.00 0.00 0.00 80 1013.0
20260502043526 6 153 0.0 0.0 0.00 0.00 0.00 80 1013.1
20260502043021 6 153 0.0 0.0 0.00 0.00 0.00 80 1013.0
20260502042516 7 153 0.0 0.0 0.00 0.00 0.00 80 1013.1
20260502042015 7 153 0.0 0.0 0.00 0.00 0.00 79 1013.1
20260502041512 7 153 0.0 0.0 0.00 0.00 0.00 78 1013.1
20260502041009 7 159 0.0 0.0 0.00 0.00 0.00 76 1013.1
20260502040505 7 159 0.0 0.0 0.00 0.00 0.00 73 1013.0
20260502040003 8 159 0.0 0.0 0.00 0.00 0.00 71 1013.0
20260502035458 9 159 0.0 0.0 0.00 0.00 0.00 69 1013.1
20260502034955 10 177 0.0 0.0 0.00 0.00 0.00 64 1013.0
20260502034454 10 200 1.6 1.6 0.00 0.00 0.00 63 1013.1
20260502033952 10 187 0.0 1.6 0.00 0.00 0.00 63 1013.0
20260502033449 10 199 1.6 1.6 0.00 0.00 0.00 62 1012.8
20260502032946 9 174 0.0 0.0 0.00 0.00 0.00 64 1013.0
20260502032443 10 189 0.0 1.6 0.00 0.00 0.00 63 1013.0
20260502031939 9 189 0.0 0.0 0.00 0.00 0.00 63 1013.0
20260502031438 10 173 0.0 0.0 0.00 0.00 0.00 62 1012.9
20260502030936 10 181 0.0 0.0 0.00 0.00 0.00 61 1012.9
20260502030433 10 178 0.0 0.0 0.00 0.00 0.00 61 1012.9
20260502025931 9 194 1.6 1.6 0.00 0.00 0.00 62 1012.9